sat.trackr.live / text

‹ back to catalog

STARLINK-36727

NORAD 67875 · 2026-034AB

PAYLOAD ACTIVE UNKNOWN

§ Identity

Operator
Country
US
Launch date
2026-02-20
Launch site
AFETR
Launch vehicle
Mass (kg)
RCS (m²)

Purposes: comms

External: N2YO · Heavens-Above · Gunter

§ Orbital elements

Epoch: 2026-09-19T19:43:01.518240Z

Period
94.01 min
Inclination
53.1597°
Eccentricity
0.0000787
Mean motion
15.31716287 rev/d
Perigee alt
470.2 km
Apogee alt
471.2 km
Semi-major
6,848.8 km
B*
4.3218e-4
RAAN
20.7031°
Arg perigee
53.9893°
Mean anomaly
306.1182°
Rev number
3,378

§ Raw data

STARLINK-367271 67875U 26034AB  26262.82154535  .00013076  00000+0  43218-3 0  99962 67875  53.1597  20.7031 0000787  53.9893 306.1182 15.31716287 33780

JSON: /api/v1/satellites/67875 · /tle

For live sub-satellite position, see the globe view (requires WebGL).

§ Visibility from observer

Set your observer location to see the next 7 days of passes ≥ 10°. The values pass through the URL so the page stays shareable.

No JS? Fill the form by hand. The geolocation button needs JavaScript.